Regional Weather Roundup
Issued by NWS Cleveland, OH

Home | Current Version | Previous Version | Graphics & Text | Print | Product List | Glossary On
Versions: 1 2 3 4 5 6 7 8 9 10 11 12 13 14 15 16 17 18 19 20 21 22 23 24 25 26 27 28 29 30 31 32 33 34 35 36 37 38 39 40 41 42 43 44 45 46 47 48 49 50
000
ASUS41 KCLE 051010
RWRCLE
OHIO REGIONAL WEATHER ROUNDUP
NATIONAL WEATHER SERVICE WILMINGTON, OH
600 AM EDT SAT SEP 05 2015

NOTE: "FAIR" INDICATES FEW OR NO CLOUDS BELOW 12,000 FEET WITH NO
SIGNIFICANT WEATHER AND/OR OBSTRUCTIONS TO VISIBILITY.

OHZ001>008-015>018-024>027-034-035-043-044-051100-
   NORTHWEST OHIO

CITY           SKY/WX    TMP DP  RH WIND       PRES   REMARKS
DEFIANCE       CLOUDY    67  64  90 CALM      30.11R
FINDLAY        TSTM      69  65  86 NE8       30.13R FOG
TOLEDO EXPRESS MOCLDY    67  65  93 S3        30.11R
TOLEDO EXEC    CLOUDY    69  65  86 S13       30.13R
LIMA           PTCLDY    64  62  93 E3        30.13R
$$

OHZ009>014-019>023-028>033-038-089-051100-
   NORTHEAST OHIO

CITY           SKY/WX    TMP DP  RH WIND       PRES   REMARKS
CLE-HOPKINS    CLEAR     67  65  93 SW3       30.15R
CLE-LAKEFRONT  CLEAR     72  64  76 SE9       30.11R
CUY CO. ARPT   NOT AVBL
LORAIN-ELYRIA  CLEAR     64  62  93 W7        30.14R
ASHTABULA      CLOUDY    68  65  90 S8        30.16R
AKRON-CANTON   PTCLDY    64  61  90 CALM      30.15R
WOOSTER        FOG       61  61 100 NW5       30.16R VSB 1
MANSFIELD      CLEAR     62  61  96 SW6       30.17R
YOUNGSTOWN     PTCLDY    64  62  93 E7        30.16R FOG
$$

OHZ042-051>053-060>062-070>072-077>081-051100-
  SOUTHWEST OHIO

CITY           SKY/WX    TMP DP  RH WIND       PRES   REMARKS
CINC-COVINGTON MOCLDY    68  65  90 E3        30.12R
CINC-LUNKEN    FOG       63  63 100 CALM      30.12S VSB 1
HAMILTON       MOCLDY    64  63  96 CALM      30.13R FOG
DAYTON         MOCLDY    62  62 100 SE6       30.14R
WRIGHT-PAT AFB PTCLDY    62  62 100 W2        30.13R
DAYTON GENERAL PTCLDY    63  61  93 NE5       30.13R
WILMINGTON     CLEAR     62  60  93 CALM      30.13R
$$

OHZ036-037-039>041-045>050-054>059-063>069-073>076-082>088-051100-
  CENTRAL AND SOUTHEAST OHIO

CITY           SKY/WX    TMP DP  RH WIND       PRES   REMARKS
COLUMBUS       PTCLDY    65  64  97 CALM      30.13R
OSU AIRPORT    PTCLDY    62  62 100 CALM      30.14R FOG
BOLTON FIELD   PTCLDY    63  63 100 NW3       30.15R FOG
RICKENBACK AFB PTCLDY    64  63  96 CALM      30.13S
NEWARK         PTCLDY    62  60  93 CALM      30.13S FOG
MARION         PTCLDY    61  59  93 NE3       30.16R
LANCASTER      MOCLDY    65  63  93 CALM      30.14R FOG
ZANESVILLE     CLEAR     64  62  93 CALM      30.14R
NEW PHILLY     FOG       64  64 100 SE3       30.15R VSB 1/4
$$


USA.gov is the U.S. government's official web portal to all federal, state and local government web resources and services.